Regional Weather Roundup
Issued by NWS

Home | Current Version | Previous Version | Text Only | Print | Product List | Glossary On
Versions: 1 2 3 4 5 6 7 8 9 10 11 12 13 14 15 16 17 18 19 20 21 22 23 24 25 26 27 28 29 30 31 32 33 34 35 36 37 38 39 40 41 42 43 44 45 46 47 48 49 50
000
ASUS43 KMPX 301410
RWRMN
WEATHER ROUNDUP FOR MINNESOTA
NATIONAL WEATHER SERVICE TWIN CITIES/CHANHASSEN MN
900 AM CDT SAT MAY 30 2015


NOTE: "FAIR" INDICATES FEW OR NO CLOUDS BELOW 12,000 FEET WITH NO
SIGNIFICANT WEATHER AND/OR OBSTRUCTIONS TO VISIBILITY. N/A MEANS
CURRENT SKY AND/OR WEATHER CONDITIONS ARE NOT AVAILABLE.

MNZ060>063-068>070-301500-
   Twin Cities Metro

CITY           SKY/WX    TMP DP  RH WIND       PRES   REMARKS
TWIN CITIES    PTSUNNY   50  39  66 N16G25    30.21R
ST PAUL        MOSUNNY   51  40  65 N15G22    30.22R
CRYSTAL        SUNNY     51  38  60 N14G23    30.21R
LAKEVILLE      MOSUNNY   48  41  76 N12G22    30.19R
EDEN PRAIRIE   SUNNY     51  39  63 N13       30.20R
SOUTH ST PAUL  MOSUNNY   51  39  63 N13G18    30.20R
LAKE ELMO      FAIR      50  41  71 N12G17    30.21R
$$
MNZ001>005-007-008-013>017-022>024-027-028-301500-
   Northwest Minnesota

CITY           SKY/WX    TMP DP  RH WIND       PRES   REMARKS
BEMIDJI        PTSUNNY   40  31  69 N13       30.33R
HALLOCK        SUNNY     39  27  60 NE9G18    30.43R
ROSEAU         SUNNY     39  28  65 N10       30.40R
WARROAD        SUNNY     39  28  65 N10G16    30.40R
THIEF RVR FALL MOSUNNY   39  27  60 NE14      30.39S
CROOKSTON      SUNNY     39  27  60 N10G16    30.41S
FOSSTON        SUNNY     37  34  87 N13       30.36R
DETROIT LAKES  MOSUNNY   41  32  70 NE8       30.34R
MOORHEAD       SUNNY     39  32  75 N14       30.38R
PARK RAPIDS    PTSUNNY   41  31  67 N10       30.31R
MAHNOMEN       FAIR      39  32  77 N14       30.34S
$$
MNZ006-009>011-018-025>026-301500-
   North Central Minnesota

CITY           SKY/WX    TMP DP  RH WIND       PRES   REMARKS
BAUDETTE       CLOUDY    41  29  62 N14       30.37R
FLAG ISLAND    PTSUNNY   37  27  65 NE12G18   30.38S
INTL FALLS     PTSUNNY   38  25  59 NE9       30.35S
WASKISH        MOSUNNY   39  30  70 N8        30.36S
BIG FORK       MOSUNNY   39  28  65 N12       30.33R
LONGVILLE      CLOUDY    41  32  70 NE9       30.30R
GRAND RAPIDS   PTSUNNY   39  28  65 N12       30.30R
CRANE LAKE     CLOUDY    36  28  75 NW6       30.35S
ORR            CLOUDY    37  27  65 CALM      30.30R
COOK           MOSUNNY   37  28  70 N9G17     30.32R
WALKER         FAIR      39  29  69 N8        30.32R
$$
MNZ012-019>021-037-301500-
   Northeast Minnesota

CITY           SKY/WX    TMP DP  RH WIND       PRES   REMARKS
DULUTH         MOSUNNY   45  34  65 N15       30.25R
HIBBING        PTSUNNY   41  31  67 N12G18    30.29R
EVELETH        MOSUNNY   41  32  70 N10G18    30.29R
DULUTH HARBOR  SUNNY     48  37  66 N9        30.27R
TWO HARBORS    SUNNY     48  37  66 N9G18     30.23S
SILVER BAY     SUNNY     48  34  57 N5        30.24R
GRAND MARAIS     N/A     47  30  51 MISG      30.25R
G MARAIS ARPRT MOSUNNY   39  27  60 N14G24    30.22S
$$
MNZ029>031-032-039>041-046>048-054>057-064-301500-
   West Central Minnesota

CITY           SKY/WX    TMP DP  RH WIND       PRES   REMARKS
FERGUS FALLS   SUNNY     43  36  75 N7        30.35R
WHEATON        SUNNY     39  34  81 N10       30.36S
MORRIS         SUNNY     46  39  76 N14       30.31R
ALEXANDRIA     MOSUNNY   45  36  70 N14       30.31R
ELBOW LAKE     CLOUDY    45  37  74 NE9       30.32R
WADENA         MOSUNNY   41  34  75 NE13      30.31R
GLENWOOD       SUNNY     45  37  76 N13       30.29R
APPLETON       MOSUNNY   46  39  76 N10G17    30.31R
BENSON         SUNNY     48  37  66 NE12      30.30R
ORTONVILLE     MOSUNNY   43  36  75 N10       30.33R
MADISON        SUNNY     46  37  71 N15       30.31R
WILLMAR        FAIR      48  39  71 N16       30.29R
$$
MNZ033>034-036-042>043-049>051-058-059-301500-
   Central Minnesota

CITY           SKY/WX    TMP DP  RH WIND       PRES   REMARKS
ST CLOUD       PTSUNNY   48  38  68 N14       30.26R
SAUK CENTRE    FAIR      43  36  75 N13       30.29R
PAYNESVILLE    PTSUNNY   43  37  79 N13G18    30.28S
AITKIN         PTSUNNY   45  36  70 N10G16    30.26S
PINE RIVER     PTSUNNY   41  32  70 NW10      30.33R
BRAINERD       SUNNY     44  32  62 N16       30.28F
STAPLES        MOSUNNY   43  34  70 NE9       30.30R
LONG PRAIRIE   FAIR      43  34  70 N10       30.29S
LITTLE FALLS   MOSUNNY   43  32  65 N6        30.28R
LITCHFIELD     SUNNY     48  39  71 N15G21    30.26R
BUFFALO        SUNNY     49  37  61 N15       30.25R
MAPLE LAKE     SUNNY     49  40  71 N14G20    30.26R
$$
MNZ037-044-045-052-053-301500-
   East Central Minnesota

CITY           SKY/WX    TMP DP  RH WIND       PRES   REMARKS
PRINCETON      SUNNY     50  37  62 N12G20    30.25S
MORA           SUNNY     46  34  61 N7        30.26R
CAMBRIDGE      SUNNY     52  37  58 N10G18    30.22S
RUSH CITY      SUNNY     48  38  69 N13G18    30.24R
MOOSE LAKE     PTSUNNY   45  34  65 NE12G18   30.24S
HINCKLEY       FAIR      46  37  71 N13G18    30.25R
CLOQUET        SUNNY     45  34  65 N12G22    30.25R
MCGREGOR       MOSUNNY   43  34  70 N13       30.27S
$$
MNZ071>073-080-081-089-090-097-098-301500-
   Southwest Minnesota

CITY           SKY/WX    TMP DP  RH WIND       PRES   REMARKS
MONTEVIDEO     SUNNY     48  41  76 NE17      30.30R
GRANITE FALLS  SUNNY     47  40  74 N15G21    30.29S
CANBY          MOSUNNY   44  38  79 N13       30.32R
MARSHALL       MOSUNNY   46  37  71 N17       30.27S
REDWOOD FALLS  MOSUNNY   50  40  68 N15G25    30.25R
OLIVIA         SUNNY     46  37  71 N18       30.25R
PIPESTONE      MOSUNNY   45  37  76 NE12G21   30.25S
WINDOM         PTSUNNY   46  41  81 N17G24    30.23R
WORTHINGTON    PTSUNNY   46  37  71 N16G28    30.23S
JACKSON        CLOUDY    46  41  81 VRB20G26  30.22R
TRACY          MOSUNNY   48  43  83 N16       30.26S
SLAYTON        FAIR      46  41  85 N17G25    30.26R
$$
MNZ065>067-074>077-082>085-091>093-301500-
   South Central Minnesota

CITY           SKY/WX    TMP DP  RH WIND       PRES   REMARKS
MANKATO        MOSUNNY   52  39  62 N20       30.20R
NEW ULM        MOSUNNY   48  39  71 N14G22    30.22R
ST JAMES       PTSUNNY   48  43  81 N16G22    30.23R
FAIRMONT       PTSUNNY   48  39  71 N21G26    30.19R
GLENCOE        MOSUNNY   50  41  71 N12G20    30.23R
FARIBAULT      PTSUNNY   50  43  76 N15       30.19R
OWATONNA       CLOUDY    50  41  71 N15G25    30.18R
WASECA         CLOUDY    50  43  76 N18       30.19R
ALBERT LEA     CLOUDY    50  45  81 N18       30.15R
$$
MNZ078>079-086>088-094>096-301500-
   Southeast Minnesota

CITY           SKY/WX    TMP DP  RH WIND       PRES   REMARKS
ROCHESTER      CLOUDY    51  46  83 N15G26    30.14R
RED WING       PTSUNNY   52  43  71 NE9       30.16R
STANTON        CLOUDY    50  42  73 N20       30.17R
DODGE CENTER   CLOUDY    50  45  81 N17       30.15R
WINONA         CLOUDY    54  48  82 N5        30.13R
AUSTIN         CLOUDY    50  45  81 N13G20    30.13R
PRESTON        CLOUDY    49  46  87 N16G24    30.12R
$$
ABBREVIATIONS USED IN REMARKS
   TC - TEMPERATURES IN CELSIUS
  WCI - WIND CHILL INDEX
   HX - HEAT INDEX
  VSB - VISIBILITY
$$


USA.gov is the U.S. government's official web portal to all federal, state and local government web resources and services.